Abilene, TX

5:05 PM CST on November 11, 2019 (GMT -0600)
Abilene Regional

Weather History for KABI - October, 2019

Change the Weather History Date:

Sunday, October 13, 2019

  Actual Average Record
Temperature  
Mean Temperature 68 °F 67 °F  
Max Temperature 84 °F 78 °F 97 °F (1954)
Min Temperature 51 °F 55 °F 36 °F (1969)
Degree Days  
Heating Degree Days 0 2  
Month to date heating degree days 29 22  
Since 1 July heating degree days 29 33  
Cooling Degree Days 3 4  
Month to date cooling degree days 128 68  
Year to date cooling degree days 2861 2339  
Growing Degree Days 18 (Base 50)    
Moisture  
Dew Point 37 °F    
Average Humidity 35    
Maximum Humidity 50    
Minimum Humidity 19    
Precipitation  
Precipitation 0.00 in 0.10 in 3.83 in (1981)
Month to date precipitation 0.19 1.20  
Year to date precipitation 20.00 20.40  
Sea Level Pressure  
Sea Level Pressure 29.93 in    
Wind  
Wind Speed 9 mph (South)    
Max Wind Speed 17 mph    
Max Gust Speed 24 mph    
Visibility 10 miles    
Events      
T = Trace of Precipitation, MM = Missing Value Source: NWS Daily Summary

Daily Weather History Graph

Daily Weather History Graph

Search for Another Location

Airport or City:

Astronomy

Oct. 13, 2019 Rise Set
Actual Time 7:40 AM CDT 7:08 PM CDT
Civil Twilight 7:16 AM CDT 7:33 PM CDT
Nautical Twilight 6:47 AM CDT 8:01 PM CDT
Astronomical Twilight 6:19 AM CDT 8:30 PM CDT
Moon 7:28 PM CDT (10/13) 7:21 AM CDT (10/13)
Length of Visible Light 12h 16m
Length of Day
11h 27m
Full, 100% of the Moon is Illuminated
Oct 13
Full
Oct 13
Full
Oct 21
Last Quarter
Oct 27
New
Nov 4
First Quarter

Hourly Weather History & Observations

Time (CDT) Temp. Dew Point Humidity Pressure Visibility Wind Dir Wind Speed Gust Speed Precip Events Conditions
12:52 AM 55.9 °F 28.0 °F 34% 29.97 in 10.0 mi South 6.9 mph - N/A   Partly Cloudy
1:52 AM 55.9 °F 32.0 °F 40% 29.96 in 10.0 mi South 8.1 mph - N/A   Scattered Clouds
2:52 AM 55.0 °F 34.0 °F 45% 29.96 in 10.0 mi South 6.9 mph - N/A   Clear
3:52 AM 55.0 °F 34.0 °F 45% 29.95 in 10.0 mi South 8.1 mph - N/A   Partly Cloudy
4:52 AM 55.9 °F 34.0 °F 44% 29.93 in 10.0 mi SSW 10.4 mph - N/A   Clear
5:52 AM 55.9 °F 34.0 °F 44% 29.95 in 10.0 mi South 8.1 mph - N/A   Clear
6:52 AM 54.0 °F 34.0 °F 47% 29.97 in 10.0 mi South 8.1 mph - N/A   Clear
7:52 AM 53.1 °F 35.1 °F 50% 29.98 in 10.0 mi SSE 4.6 mph - N/A   Clear
8:52 AM 57.0 °F 36.0 °F 45% 29.99 in 10.0 mi South 6.9 mph - N/A   Clear
9:52 AM 62.1 °F 34.0 °F 35% 29.99 in 10.0 mi SW 15.0 mph - N/A   Clear
10:52 AM 68.0 °F 34.0 °F 28% 29.98 in 10.0 mi SSW 15.0 mph - N/A   Clear
11:52 AM 72.0 °F 35.1 °F 26% 29.97 in 10.0 mi SSW 10.4 mph - N/A   Clear
12:52 PM 75.9 °F 36.0 °F 23% 29.95 in 10.0 mi South 10.4 mph - N/A   Clear
1:52 PM 78.1 °F 37.0 °F 23% 29.91 in 10.0 mi South 8.1 mph - N/A   Clear
2:52 PM 82.0 °F 37.0 °F 20% 29.88 in 10.0 mi South 11.5 mph - N/A   Clear
3:52 PM 84.0 °F 37.9 °F 19% 29.86 in 10.0 mi SW 12.7 mph - N/A   Clear
4:52 PM 84.0 °F 39.0 °F 20% 29.86 in 10.0 mi SSW 12.7 mph 21.9 mph N/A   Clear
5:52 PM 82.9 °F 39.9 °F 22% 29.86 in 10.0 mi SSW 9.2 mph - N/A   Clear
6:52 PM 78.1 °F 42.1 °F 28% 29.88 in 10.0 mi SSW 8.1 mph - N/A   Clear
7:52 PM 72.0 °F 43.0 °F 35% 29.90 in 10.0 mi SSE 9.2 mph - N/A   Clear
8:52 PM 71.1 °F 43.0 °F 36% 29.91 in 10.0 mi SSE 9.2 mph - N/A   Clear
9:52 PM 70.0 °F 43.0 °F 38% 29.92 in 10.0 mi SSE 8.1 mph - N/A   Clear
10:52 PM 71.1 °F 42.1 °F 35% 29.91 in 10.0 mi South 9.2 mph - N/A   Clear
11:52 PM 68.0 °F 42.1 °F 39% 29.91 in 10.0 mi SSE 5.8 mph - N/A   Clear